Skip Page Navigation
NASA JPL Caltech
NASA Logo - Jet Propulsion Laboratory + View the NASA Portal
+ Near-Earth Object (NEO) Program
Search JPL
JPL Home Earth Solar System Stars & Galaxies Technology
JPL Solar System Dynamics
BODIES ORBITS EPHEMERIDES TOOLS PHYSICAL DATA DISCOVERY FAQ SITE MAP
JPL Small-Body Database Browser
Search: [ help ]  
(2003 BR47)
Classification: Apollo [NEO, PHA]          SPK-ID: 3147555
Ephemeris | Orbit Diagram | Orbital Elements | Physical Parameters | Close-Approach Data ]

[ hide orbit diagram ]
Orbit Diagram
Note: Make sure you have Java enabled on your browser to see the applet. This applet is provided as a 3D orbit visualization tool. The applet was implemented using 2-body methods, and hence should not be used for determining accurate long-term trajectories (over several years or decades) or planetary encounter circumstances. For accurate long-term ephemerides, please instead use our Horizons system.
Orbit Viewer

Additional Notes: the orbits shown in the applet are color coded. The planets are white lines, and the asteroid/comet is a blue line. The bright white line indicates the portion of the orbit that is above the ecliptic plane, and the darker portion is below the ecliptic plane. Likewise for the asteroid/comet orbit, the light blue indicates the portion above the ecliptic plane, and the dark blue the portion below the ecliptic plane.

Orbit Viewer applet originally written and kindly provided by Osamu Ajiki (AstroArts), and further modified by Ron Baalke (JPL).


Orbital Elements at Epoch 2456400.5 (2013-Apr-18.0) TDB
Reference: JPL 27 (heliocentric ecliptic J2000)
 Element Value Uncertainty (1-sigma)   Units 
e .5002385807366471 5.9541e-07  
a 1.627851400484586 4.8591e-07 AU
q .8135373262560134 7.4527e-07 AU
i 4.420548711486278 1.8802e-05 deg
node 314.5858259061119 2.0206e-05 deg
peri 112.4906261838353 0.00011357 deg
M 349.6777291215894 0.00078757 deg
tp 2456422.251705470577
(2013-May-09.75170547)
0.0016694 JED
period 758.6134932561775
2.08
0.00033966
9.299e-07
d
yr
n .474549956203364 2.1248e-07 deg/d
Q 2.442165474713159 7.2898e-07 AU
  Orbit Determination Parameters
   # obs. used (total)      170  
   data-arc span      939 days (2.57 yr)  
   first obs. used      2000-08-28  
   last obs. used      2003-03-25  
   planetary ephem.      DE405  
   SB-pert. ephem.      SB405-CPV-2  
   condition code      2  
   fit RMS      .66215  
   data source      ORB  
   producer      Otto Matic  
   solution date      2011-Sep-14 19:49:26  

Additional Information
 Earth MOID = .00780711 AU 
 T_jup = 4.162 
[ show covariance matrix ]

Ephemeris | Orbit Diagram | Orbital Elements | Physical Parameters | Close-Approach Data ]

Physical Parameter Table
Parameter Symbol Value Units Sigma Reference Notes
absolute magnitude H 21.135 mag .39101 27 autocmod 2.5a

[ show close-approach data ]
Ephemeris | Orbit Diagram | Orbital Elements | Physical Parameters | Close-Approach Data ]
ABOUT SSD CREDITS/AWARDS PRIVACY/COPYRIGHT GLOSSARY LINKS
FirstGov 2013-Jun-18 22:26 UT
(server date/time)  
NASA Home Page
Site Manager:   Donald K. Yeomans
Webmaster  Alan B. Chamberlin